| time (UTC) | temp C | wind direction | speed KPH | gust KPH | rain 1hr cm | rain 24hr cm | rain mn cm | humidity % | barometer mb |
| 20260505054503 | 12 | 74 | 3.2 | 6.4 | 0.00 | 0.00 | 0.00 | 55 | 1009.0 |
| 20260505054003 | 12 | 87 | 3.2 | 8.0 | 0.00 | 0.00 | 0.00 | 54 | 1008.7 |
| 20260505053503 | 12 | 82 | 3.2 | 12.9 | 0.00 | 0.00 | 0.00 | 54 | 1008.6 |
| 20260505053003 | 12 | 80 | 4.8 | 12.9 | 0.00 | 0.00 | 0.00 | 54 | 1008.6 |
| 20260505052503 | 12 | 73 | 3.2 | 11.3 | 0.00 | 0.00 | 0.00 | 54 | 1008.8 |
| 20260505052003 | 12 | 69 | 3.2 | 11.3 | 0.00 | 0.00 | 0.00 | 53 | 1008.9 |
| 20260505051503 | 12 | 72 | 3.2 | 11.3 | 0.00 | 0.00 | 0.00 | 53 | 1008.9 |
| 20260505051003 | 12 | 72 | 3.2 | 9.7 | 0.00 | 0.00 | 0.00 | 53 | 1008.9 |
| 20260505050503 | 12 | 75 | 3.2 | 9.7 | 0.00 | 0.00 | 0.00 | 52 | 1008.9 |
| 20260505041503 | 14 | 65 | 3.2 | 9.7 | 0.00 | 0.00 | 0.00 | 47 | 1008.6 |
| 20260505041003 | 15 | 66 | 3.2 | 9.7 | 0.00 | 0.00 | 0.00 | 46 | 1008.5 |
| 20260505040503 | 15 | 68 | 3.2 | 8.0 | 0.00 | 0.00 | 0.00 | 45 | 1008.5 |
| 20260505040005 | 15 | 73 | 1.6 | 4.8 | 0.00 | 0.00 | 0.00 | 45 | 1008.5 |
| 20260505035503 | 15 | 73 | 3.2 | 6.4 | 0.00 | 0.00 | 0.00 | 45 | 1008.5 |
| 20260505035003 | 15 | 79 | 1.6 | 6.4 | 0.00 | 0.00 | 0.00 | 44 | 1008.4 |
| 20260505034503 | 15 | 81 | 1.6 | 8.0 | 0.00 | 0.00 | 0.00 | 44 | 1008.2 |
| 20260505034003 | 15 | 77 | 3.2 | 11.3 | 0.00 | 0.00 | 0.00 | 44 | 1008.2 |
| 20260505033503 | 15 | 75 | 3.2 | 11.3 | 0.00 | 0.00 | 0.00 | 44 | 1008.1 |
| 20260505033003 | 15 | 64 | 3.2 | 12.9 | 0.00 | 0.00 | 0.00 | 43 | 1008.2 |
| 20260505032504 | 16 | 59 | 3.2 | 12.9 | 0.00 | 0.00 | 0.00 | 43 | 1008.2 |
| 20260505032003 | 16 | 60 | 3.2 | 8.0 | 0.00 | 0.00 | 0.00 | 43 | 1008.0 |
| 20260505031503 | 16 | 60 | 3.2 | 8.0 | 0.00 | 0.00 | 0.00 | 42 | 1008.0 |
| 20260505031004 | 16 | 66 | 3.2 | 14.5 | 0.00 | 0.00 | 0.00 | 42 | 1008.0 |
| 20260505030503 | 16 | 61 | 3.2 | 14.5 | 0.00 | 0.00 | 0.00 | 41 | 1008.1 |
| 20260505030003 | 16 | 52 | 3.2 | 11.3 | 0.00 | 0.00 | 0.00 | 41 | 1007.6 |
| 20260505025504 | 16 | 57 | 3.2 | 11.3 | 0.00 | 0.00 | 0.00 | 41 | 1007.5 |
| 20260505025003 | 16 | 64 | 3.2 | 12.9 | 0.00 | 0.00 | 0.00 | 40 | 1007.4 |
| 20260505024503 | 16 | 71 | 3.2 | 12.9 | 0.00 | 0.00 | 0.00 | 40 | 1007.3 |
| 20260505024005 | 16 | 59 | 3.2 | 6.4 | 0.00 | 0.00 | 0.00 | 40 | 1007.2 |
| 20260505023503 | 17 | 58 | 3.2 | 12.9 | 0.00 | 0.00 | 0.00 | 39 | 1007.0 |
| 20260505023005 | 17 | 64 | 3.2 | 14.5 | 0.00 | 0.00 | 0.00 | 39 | 1006.9 |
| 20260505022505 | 17 | 59 | 4.8 | 14.5 | 0.00 | 0.00 | 0.00 | 39 | 1006.8 |
| 20260505022003 | 17 | 56 | 4.8 | 14.5 | 0.00 | 0.00 | 0.00 | 38 | 1006.6 |
| 20260505021503 | 17 | 54 | 4.8 | 16.1 | 0.00 | 0.00 | 0.00 | 38 | 1006.5 |
| 20260505021003 | 17 | 58 | 4.8 | 16.1 | 0.00 | 0.00 | 0.00 | 38 | 1006.3 |
| 20260505020505 | 17 | 63 | 4.8 | 11.3 | 0.00 | 0.00 | 0.00 | 39 | 1006.3 |
| 20260505020003 | 18 | 57 | 4.8 | 11.3 | 0.00 | 0.00 | 0.00 | 39 | 1006.1 |
| 20260505015503 | 18 | 49 | 3.2 | 12.9 | 0.00 | 0.00 | 0.00 | 39 | 1005.9 |
| 20260505015003 | 18 | 56 | 3.2 | 12.9 | 0.00 | 0.00 | 0.00 | 39 | 1005.9 |
| 20260505014503 | 18 | 59 | 3.2 | 11.3 | 0.00 | 0.00 | 0.00 | 38 | 1005.8 |
| 20260505014003 | 18 | 58 | 4.8 | 17.7 | 0.00 | 0.00 | 0.00 | 38 | 1005.6 |
| 20260505013503 | 18 | 54 | 4.8 | 17.7 | 0.00 | 0.00 | 0.00 | 38 | 1005.6 |
| 20260505013003 | 19 | 48 | 4.8 | 16.1 | 0.00 | 0.00 | 0.00 | 38 | 1005.4 |
| 20260505012505 | 20 | 54 | 4.8 | 16.1 | 0.00 | 0.00 | 0.00 | 37 | 1005.2 |
| 20260505012003 | 20 | 64 | 3.2 | 8.0 | 0.00 | 0.00 | 0.00 | 38 | 1005.2 |
| 20260505011503 | 20 | 73 | 3.2 | 11.3 | 0.00 | 0.00 | 0.00 | 38 | 1004.9 |
| 20260505011003 | 20 | 68 | 4.8 | 11.3 | 0.00 | 0.00 | 0.00 | 38 | 1005.1 |
| 20260505010503 | 20 | 63 | 4.8 | 11.3 | 0.00 | 0.00 | 0.00 | 38 | 1005.0 |
| 20260505010004 | 20 | 65 | 3.2 | 9.7 | 0.00 | 0.00 | 0.00 | 37 | 1004.9 |
| 20260505005503 | 21 | 55 | 3.2 | 9.7 | 0.00 | 0.00 | 0.00 | 37 | 1004.7 |
| 20260505005004 | 21 | 45 | 3.2 | 14.5 | 0.00 | 0.00 | 0.00 | 37 | 1004.7 |
| 20260505004503 | 21 | 51 | 3.2 | 14.5 | 0.00 | 0.00 | 0.00 | 36 | 1004.7 |
| 20260505004003 | 21 | 41 | 4.8 | 14.5 | 0.00 | 0.00 | 0.00 | 36 | 1004.6 |
| 20260505003503 | 21 | 41 | 4.8 | 14.5 | 0.00 | 0.00 | 0.00 | 36 | 1004.7 |
| 20260505003003 | 22 | 46 | 3.2 | 12.9 | 0.00 | 0.00 | 0.00 | 34 | 1004.8 |
| 20260505002504 | 22 | 58 | 3.2 | 12.9 | 0.00 | 0.00 | 0.00 | 34 | 1004.9 |
| 20260505002003 | 22 | 91 | 3.2 | 9.7 | 0.00 | 0.00 | 0.00 | 33 | 1004.7 |
| 20260505001503 | 22 | 91 | 3.2 | 9.7 | 0.00 | 0.00 | 0.00 | 31 | 1004.6 |
| 20260505001003 | 23 | 88 | 3.2 | 11.3 | 0.00 | 0.00 | 0.00 | 31 | 1004.2 |
| 20260505000503 | 23 | 87 | 4.8 | 11.3 | 0.00 | 0.00 | 0.00 | 31 | 1003.9 |
| 20260505000003 | 24 | 81 | 3.2 | 14.5 | 0.00 | 0.00 | 0.00 | 29 | 1003.7 |
| 20260504235503 | 25 | 80 | 3.2 | 14.5 | 0.00 | 0.00 | 0.00 | 26 | 1003.8 |
| 20260504235003 | 25 | 79 | 1.6 | 6.4 | 0.00 | 0.00 | 0.00 | 23 | 1003.7 |
| 20260504234504 | 26 | 86 | 1.6 | 4.8 | 0.00 | 0.00 | 0.00 | 22 | 1003.2 |
| 20260504234003 | 26 | 112 | 1.6 | 4.8 | 0.00 | 0.00 | 0.00 | 21 | 1003.1 |
| 20260504233503 | 26 | 124 | 1.6 | 3.2 | 0.00 | 0.00 | 0.00 | 21 | 1003.0 |
| 20260504233005 | 26 | 124 | 1.6 | 3.2 | 0.00 | 0.00 | 0.00 | 21 | 1002.9 |
| 20260504232503 | 26 | 124 | 1.6 | 3.2 | 0.00 | 0.00 | 0.00 | 21 | 1002.9 |
| 20260504232003 | 27 | 123 | 0.0 | 3.2 | 0.00 | 0.00 | 0.00 | 20 | 1002.9 |
| 20260504231503 | 27 | 134 | 0.0 | 3.2 | 0.00 | 0.00 | 0.00 | 19 | 1002.8 |
| 20260504231003 | 27 | 132 | 1.6 | 3.2 | 0.00 | 0.00 | 0.00 | 19 | 1002.7 |
| 20260504230505 | 27 | 67 | 1.6 | 4.8 | 0.00 | 0.00 | 0.00 | 19 | 1002.7 |
| 20260504230003 | 27 | 46 | 1.6 | 4.8 | 0.00 | 0.00 | 0.00 | 22 | 1002.7 |
| 20260504225503 | 27 | 46 | 1.6 | 3.2 | 0.00 | 0.00 | 0.00 | 21 | 1002.7 |
| 20260504225003 | 27 | 41 | 1.6 | 3.2 | 0.00 | 0.00 | 0.00 | 20 | 1002.7 |
| 20260504224503 | 27 | 76 | 1.6 | 4.8 | 0.00 | 0.00 | 0.00 | 18 | 1002.7 |
| 20260504224003 | 27 | 157 | 1.6 | 6.4 | 0.00 | 0.00 | 0.00 | 18 | 1002.8 |
| 20260504223504 | 27 | 189 | 3.2 | 9.7 | 0.00 | 0.00 | 0.00 | 18 | 1002.9 |
| 20260504223003 | 27 | 188 | 4.8 | 9.7 | 0.00 | 0.00 | 0.00 | 18 | 1003.0 |
| 20260504222503 | 26 | 162 | 4.8 | 9.7 | 0.00 | 0.00 | 0.00 | 18 | 1003.2 |
| 20260504222003 | 26 | 113 | 3.2 | 9.7 | 0.00 | 0.00 | 0.00 | 19 | 1003.3 |
| 20260504221503 | 26 | 109 | 3.2 | 4.8 | 0.00 | 0.00 | 0.00 | 20 | 1003.3 |
| 20260504221003 | 26 | 105 | 3.2 | 6.4 | 0.00 | 0.00 | 0.00 | 22 | 1003.3 |
| 20260504220503 | 26 | 115 | 3.2 | 9.7 | 0.00 | 0.00 | 0.00 | 20 | 1003.4 |
| 20260504220003 | 26 | 133 | 3.2 | 11.3 | 0.00 | 0.00 | 0.00 | 20 | 1003.5 |
| 20260504215505 | 26 | 134 | 3.2 | 11.3 | 0.00 | 0.00 | 0.00 | 21 | 1003.5 |
| 20260504215003 | 26 | 117 | 3.2 | 22.5 | 0.00 | 0.00 | 0.00 | 20 | 1003.4 |
| 20260504214503 | 26 | 109 | 3.2 | 22.5 | 0.00 | 0.00 | 0.00 | 21 | 1003.6 |
| 20260504214003 | 26 | 140 | 4.8 | 24.1 | 0.00 | 0.00 | 0.00 | 22 | 1003.6 |
| 20260504213503 | 26 | 170 | 11.3 | 30.6 | 0.00 | 0.00 | 0.00 | 20 | 1003.7 |
| 20260504213003 | 26 | 176 | 16.1 | 37.0 | 0.00 | 0.00 | 0.00 | 20 | 1003.3 |
| 20260504212505 | 26 | 176 | 16.1 | 37.0 | 0.00 | 0.00 | 0.00 | 20 | 1003.3 |
| 20260504212003 | 27 | 175 | 9.7 | 37.0 | 0.00 | 0.00 | 0.00 | 19 | 1003.1 |
| 20260504211503 | 27 | 173 | 6.4 | 17.7 | 0.00 | 0.00 | 0.00 | 18 | 1003.4 |
| 20260504211004 | 28 | 174 | 4.8 | 17.7 | 0.00 | 0.00 | 0.00 | 17 | 1003.5 |
| 20260504210503 | 28 | 200 | 3.2 | 8.0 | 0.00 | 0.00 | 0.00 | 17 | 1003.5 |
| 20260504210004 | 28 | 220 | 3.2 | 8.0 | 0.00 | 0.00 | 0.00 | 15 | 1003.5 |
| 20260504205503 | 28 | 227 | 3.2 | 9.7 | 0.00 | 0.00 | 0.00 | 16 | 1003.4 |
| 20260504205003 | 28 | 240 | 3.2 | 9.7 | 0.00 | 0.00 | 0.00 | 16 | 1003.5 |
| 20260504204505 | 28 | 333 | 3.2 | 9.7 | 0.00 | 0.00 | 0.00 | 16 | 1003.5 |
| 20260504204003 | 28 | 291 | 6.4 | 20.9 | 0.00 | 0.00 | 0.00 | 17 | 1003.5 |
| 20260504203503 | 28 | 217 | 8.0 | 20.9 | 0.00 | 0.00 | 0.00 | 16 | 1003.5 |
| 20260504203003 | 28 | 190 | 4.8 | 12.9 | 0.00 | 0.00 | 0.00 | 16 | 1003.7 |
| 20260504202503 | 28 | 205 | 3.2 | 12.9 | 0.00 | 0.00 | 0.00 | 16 | 1003.6 |
| 20260504202003 | 28 | 231 | 3.2 | 11.3 | 0.00 | 0.00 | 0.00 | 16 | 1003.7 |
| 20260504201503 | 28 | 259 | 3.2 | 11.3 | 0.00 | 0.00 | 0.00 | 17 | 1003.9 |
| 20260504201003 | 28 | 336 | 3.2 | 8.0 | 0.00 | 0.00 | 0.00 | 16 | 1003.9 |
| 20260504200503 | 29 | 347 | 1.6 | 8.0 | 0.00 | 0.00 | 0.00 | 17 | 1003.9 |
| 20260504200004 | 30 | 328 | 1.6 | 8.0 | 0.00 | 0.00 | 0.00 | 18 | 1004.0 |
| 20260504195503 | 29 | 116 | 0.0 | 4.8 | 0.00 | 0.00 | 0.00 | 20 | 1004.0 |
| 20260504195003 | 28 | 104 | 1.6 | 6.4 | 0.00 | 0.00 | 0.00 | 20 | 1004.1 |
| 20260504194503 | 28 | 57 | 1.6 | 9.7 | 0.00 | 0.00 | 0.00 | 18 | 1004.2 |
| 20260504194005 | 28 | 356 | 3.2 | 9.7 | 0.00 | 0.00 | 0.00 | 18 | 1004.3 |
| 20260504193503 | 28 | 360 | 3.2 | 9.7 | 0.00 | 0.00 | 0.00 | 17 | 1004.4 |
| 20260504193003 | 28 | 353 | 1.6 | 6.4 | 0.00 | 0.00 | 0.00 | 18 | 1004.4 |
| 20260504192503 | 28 | 196 | 1.6 | 6.4 | 0.00 | 0.00 | 0.00 | 20 | 1004.6 |
| 20260504192005 | 28 | 198 | 4.8 | 9.7 | 0.00 | 0.00 | 0.00 | 18 | 1004.7 |
| 20260504191503 | 28 | 189 | 6.4 | 11.3 | 0.00 | 0.00 | 0.00 | 19 | 1004.8 |
| 20260504191003 | 28 | 183 | 4.8 | 11.3 | 0.00 | 0.00 | 0.00 | 18 | 1004.9 |
| 20260504190504 | 27 | 32 | 3.2 | 9.7 | 0.00 | 0.00 | 0.00 | 20 | 1005.0 |
| 20260504190003 | 27 | 5 | 1.6 | 6.4 | 0.00 | 0.00 | 0.00 | 19 | 1005.0 |
| 20260504185503 | 27 | 329 | 3.2 | 12.9 | 0.00 | 0.00 | 0.00 | 19 | 1005.1 |
| 20260504185005 | 28 | 336 | 3.2 | 12.9 | 0.00 | 0.00 | 0.00 | 19 | 1005.1 |
| 20260504184503 | 28 | 105 | 1.6 | 12.9 | 0.00 | 0.00 | 0.00 | 19 | 1005.0 |
| 20260504184003 | 28 | 162 | 3.2 | 12.9 | 0.00 | 0.00 | 0.00 | 19 | 1005.2 |
| 20260504183505 | 27 | 165 | 3.2 | 9.7 | 0.00 | 0.00 | 0.00 | 21 | 1005.2 |
| 20260504183003 | 27 | 136 | 3.2 | 9.7 | 0.00 | 0.00 | 0.00 | 20 | 1005.2 |
| 20260504182503 | 27 | 354 | 3.2 | 11.3 | 0.00 | 0.00 | 0.00 | 22 | 1005.5 |
| 20260504182003 | 26 | 342 | 3.2 | 11.3 | 0.00 | 0.00 | 0.00 | 21 | 1005.5 |
| 20260504181503 | 26 | 346 | 3.2 | 14.5 | 0.00 | 0.00 | 0.00 | 22 | 1005.6 |
| 20260504181003 | 26 | 353 | 3.2 | 14.5 | 0.00 | 0.00 | 0.00 | 21 | 1005.6 |
| 20260504180504 | 26 | 43 | 1.6 | 4.8 | 0.00 | 0.00 | 0.00 | 22 | 1005.8 |
| 20260504180003 | 25 | 49 | 1.6 | 6.4 | 0.00 | 0.00 | 0.00 | 23 | 1005.7 |
| 20260504175503 | 25 | 28 | 1.6 | 6.4 | 0.00 | 0.00 | 0.00 | 25 | 1005.8 |
| 20260504175003 | 25 | 13 | 1.6 | 4.8 | 0.00 | 0.00 | 0.00 | 24 | 1005.9 |
| 20260504174503 | 25 | 8 | 1.6 | 4.8 | 0.00 | 0.00 | 0.00 | 25 | 1006.0 |
| 20260504174003 | 25 | 45 | 1.6 | 6.4 | 0.00 | 0.00 | 0.00 | 25 | 1006.0 |
| 20260504173503 | 25 | 36 | 1.6 | 6.4 | 0.00 | 0.00 | 0.00 | 24 | 1006.1 |
| 20260504173003 | 25 | 29 | 1.6 | 6.4 | 0.00 | 0.00 | 0.00 | 25 | 1006.0 |
| 20260504172503 | 26 | 35 | 3.2 | 6.4 | 0.00 | 0.00 | 0.00 | 24 | 1006.1 |
| 20260504172003 | 25 | 5 | 3.2 | 12.9 | 0.00 | 0.00 | 0.00 | 25 | 1006.2 |
| 20260504171503 | 25 | 358 | 3.2 | 12.9 | 0.00 | 0.00 | 0.00 | 23 | 1006.2 |
| 20260504171005 | 25 | 360 | 3.2 | 14.5 | 0.00 | 0.00 | 0.00 | 23 | 1006.2 |
| 20260504170503 | 25 | 2 | 3.2 | 14.5 | 0.00 | 0.00 | 0.00 | 25 | 1006.2 |
| 20260504151003 | 21 | 309 | 9.7 | 17.7 | 0.00 | 0.00 | 0.00 | 31 | 1006.7 |
| 20260504150504 | 20 | 308 | 9.7 | 19.3 | 0.00 | 0.00 | 0.00 | 33 | 1006.7 |
| 20260504141003 | 15 | 326 | 6.4 | 12.9 | 0.00 | 0.00 | 0.00 | 49 | 1007.0 |
| 20260504140505 | 15 | 318 | 4.8 | 9.7 | 0.00 | 0.00 | 0.00 | 50 | 1006.9 |
| 20260504130503 | 8 | 298 | 3.2 | 9.7 | 0.00 | 0.00 | 0.00 | 68 | 1006.8 |
| 20260504110503 | 5 | 0 | 0.0 | 0.0 | 0.00 | 0.00 | 0.00 | 71 | 1006.1 |
| 20260504100503 | 5 | 215 | 0.0 | 4.8 | 0.00 | 0.00 | 0.00 | 70 | 1006.6 |
| 20260504082004 | 7 | 211 | 0.0 | 3.2 | 0.00 | 0.00 | 0.00 | 64 | 1007.2 |
| 20260504081503 | 7 | 211 | 0.0 | 3.2 | 0.00 | 0.00 | 0.00 | 63 | 1007.3 |
| 20260504081003 | 8 | 211 | 0.0 | 1.6 | 0.00 | 0.00 | 0.00 | 63 | 1007.5 |
| 20260504080505 | 8 | 0 | 0.0 | 0.0 | 0.00 | 0.00 | 0.00 | 62 | 1007.6 |